Starlink 31904

operational
NORAD ID: 59657 Int'l Des: 2024-084 Owner: SPXS Country: US Constellation: starlink
LEOCIRCULAR

关于 Starlink 31904

正在加载描述...

实时位置

正在加载3D地球...

即将过境

高度历史

Altitude vs Time

uPlot chart will show altitude changes over time

两行轨道根数

1 59657U 24084D 25351.44188026 .00001921 00000-0 79274-4 0 9995
2 59657 43.0020 146.3548 0001400 258.8249 101.2446 15.27593262 91793
Epoch: Dec 17, 2025 • Age: 12 hours

当前状态

高度 487.6 km
速度 7.62 km/s
星下点 -22.46°S, 74.92°W
发射日期 May 6, 2024
运行时间 1.6 years
类型 internet

技术详情

分类 Payload
质量 730.00 kg
干质量 700.00 kg
总质量 730.00 kg
长度 0.30 m
直径 4.10 m
跨度 29.00 m
形状 Box + pan
制造商 SPXS
平台类型 Starlink V2M
阶段状态 In Orbit
所有者/国家 SPXS/US

大型星座

Loading constellations...